Location: Campolattaro
(41.2833°N, 14.7333°E)
Time: 20:27:24
(UTC+00:00)

BlueWalker 3 - Pass Details

Date: 19 May 2025
Orbit: 460 x 472 km, 53.2° (Epoch: 14 June)

Event Time Altitude Azimuth Distance (km) Brightness Sun altitude
Rises 21:04:25 0° 309° (NW) 2,496 6.6 -23.4°
Reaches altitude 10° 21:06:34 10° 311° (NW) 1,620 5.4 -23.6°
Enters shadow 21:09:29 54° 326° (NW) 573 2.4 -23.8°
